Weather History for State College, PA

Change the Weather History Date:

Tuesday, October 4, 2011

  Actual Average Record
Temperature  
Mean Temperature 52 °F -  
Max Temperature 60 °F 65 °F 84 °F (2007)
Min Temperature 44 °F 45 °F 25 °F (1974)
Degree Days  
Heating Degree Days 13    
Growing Degree Days 2 (Base 50)    
Moisture  
Dew Point 47 °F    
Average Humidity 92    
Maximum Humidity 100    
Minimum Humidity 72    
Precipitation  
Precipitation 0.01 in - - ()
Sea Level Pressure  
Sea Level Pressure 30.12 in    
Wind  
Wind Speed 2 mph (West)    
Max Wind Speed 12 mph    
Max Gust Speed 18 mph    
Visibility 8 miles    
Events      
Averages and records for this station are not official NWS values.
T = Trace of Precipitation, MM = Missing Value Source: NWS Daily Summary

Daily Weather History Graph

Daily Weather History Graph

Search for Another Location

Airport:

Trip Planner

Search our weather history database for the weather conditions in past years. The results will help you decide how hot, cold, wet, or windy it might be!

Date:

Astronomy

Oct. 04, 2011 Rise Set
Actual Time 7:10 AM EDT 6:48 PM EDT
Civil Twilight 6:43 AM EDT 7:16 PM EDT
Nautical Twilight 6:11 AM EDT 7:47 PM EDT
Astronomical Twilight 5:39 AM EDT 8:19 PM EDT
Moon 2:51 PM EDT (10/4) No Moon Set
Length of Visible Light 12h 32m
Length of Day
11h 38m
First Quarter, 56% of the Moon is Illuminated
Oct 4
First Quarter
Oct 11
Full
Oct 19
Last Quarter
Oct 26
New
Nov 2
First Quarter

Hourly Weather History & Observations

Time (EDT) Temp. Windchill Dew Point Humidity Pressure Visibility Wind Dir Wind Speed Gust Speed Precip Events Conditions
12:15 AM 44.6 °F - 44.6 °F 100% 30.10 in 3.0 mi Calm Calm - N/A   Scattered Clouds
12:35 AM 44.6 °F - 44.6 °F 100% 30.09 in 10.0 mi Calm Calm - N/A   Mostly Cloudy
12:55 AM 44.6 °F - 44.6 °F 100% 30.09 in 0.8 mi Calm Calm - N/A   Overcast
1:15 AM 44.6 °F - 44.6 °F 100% 30.09 in 7.0 mi Calm Calm - 0.01 in   Overcast
1:35 AM 44.6 °F 42.2 °F 44.6 °F 100% 30.09 in 7.0 mi WNW 4.6 mph - 0.01 in   Overcast
1:55 AM 44.6 °F - 44.6 °F 100% 30.09 in 7.0 mi Calm Calm - N/A   Mostly Cloudy
2:15 AM 44.6 °F 43.1 °F 44.6 °F 100% 30.09 in 10.0 mi WNW 3.5 mph - N/A   Mostly Cloudy
2:35 AM 44.6 °F - 44.6 °F 100% 30.09 in 7.0 mi Calm Calm - N/A   Mostly Cloudy
2:55 AM 44.6 °F - 44.6 °F 100% 30.08 in 7.0 mi Calm Calm - N/A   Mostly Cloudy
3:15 AM 44.6 °F - 44.6 °F 100% 30.08 in 7.0 mi Calm Calm - N/A   Overcast
3:35 AM 44.6 °F - 44.6 °F 100% 30.08 in 5.0 mi Calm Calm - N/A   Light Drizzle
3:55 AM 44.6 °F - 44.6 °F 100% 30.08 in 7.0 mi Calm Calm - N/A   Light Drizzle
4:15 AM 44.6 °F - 44.6 °F 100% 30.09 in 7.0 mi Calm Calm - N/A   Overcast
4:35 AM 44.6 °F 43.1 °F 44.6 °F 100% 30.08 in 7.0 mi SSW 3.5 mph - N/A   Overcast
4:55 AM 44.6 °F 43.1 °F 44.6 °F 100% 30.08 in 7.0 mi South 3.5 mph - N/A   Overcast
5:15 AM 44.6 °F - 44.6 °F 100% 30.09 in 5.0 mi Calm Calm - N/A   Overcast
5:35 AM 44.6 °F - 44.6 °F 100% 30.09 in 4.0 mi Calm Calm - N/A   Overcast
5:55 AM 44.6 °F 43.1 °F 44.6 °F 100% 30.09 in 4.0 mi SSW 3.5 mph - N/A   Overcast
6:53 AM 46.4 °F 45.2 °F 46.4 °F 100% 30.12 in 7.0 mi SSE 3.5 mph - N/A   Overcast
7:53 AM 48.2 °F - 48.2 °F 100% 30.14 in 8.0 mi SSW 3.5 mph - N/A   Overcast
8:53 AM 53.6 °F - 50.0 °F 88% 30.15 in 10.0 mi SSW 3.5 mph - N/A   Overcast
9:53 AM 53.6 °F - 50.0 °F 88% 30.06 in 10.0 mi WNW 4.6 mph - N/A   Overcast
10:53 AM 51.8 °F - 50.0 °F 94% 30.16 in 10.0 mi Calm Calm - N/A   Overcast
12:53 PM 57.2 °F - 51.8 °F 82% 30.15 in 10.0 mi NW 6.9 mph - N/A   Mostly Cloudy
1:53 PM 59.0 °F - 50.0 °F 72% 30.14 in 10.0 mi NNW 6.9 mph - N/A   Overcast
2:53 PM 59.0 °F - 50.0 °F 72% 30.13 in 10.0 mi West 11.5 mph 16.1 mph N/A   Overcast
3:53 PM 60.8 °F - 51.8 °F 72% 30.13 in 10.0 mi NW 6.9 mph - N/A   Overcast
4:53 PM 59.0 °F - 51.8 °F 77% 30.13 in 10.0 mi WNW 11.5 mph 18.4 mph N/A   Overcast
5:53 PM 59.0 °F - 51.8 °F 77% 30.15 in 10.0 mi NW 6.9 mph - N/A   Overcast
7:53 PM 57.2 °F - 50.0 °F 77% 30.18 in 10.0 mi WNW 8.1 mph - N/A   Overcast
8:53 PM 55.4 °F - 50.0 °F 82% 30.19 in 10.0 mi NW 8.1 mph - N/A   Scattered Clouds
10:15 PM 51.8 °F - 48.2 °F 88% 30.19 in 10.0 mi Calm Calm - N/A   Clear
10:35 PM 51.8 °F - 48.2 °F 88% 30.19 in 10.0 mi Calm Calm - N/A   Clear
10:55 PM 50.0 °F - 48.2 °F 94% 30.18 in 10.0 mi Calm Calm - N/A   Clear
11:15 PM 50.0 °F - 48.2 °F 94% 30.18 in 10.0 mi Calm Calm - N/A   Clear
11:35 PM 51.8 °F - 48.2 °F 88% 30.18 in 10.0 mi SSW 3.5 mph - N/A   Clear
11:55 PM 51.8 °F - 46.4 °F 82% 30.18 in 10.0 mi Calm Calm - N/A   Clear